Theta_e
306 304 306 305 305 307 307 307 305 304 305 305 306 304 303 303 302 302 302 302 301 301 300 300 299 299 301 302 303 308 312 315 316 319 318 318 319 319 324 326 326 326 325 323
303 307 305 306 305 306 306 306 305 303 304 305 306 305 303 303 303 303 302 301 300 300 300 299 298 298 300 301 302 302 304 310 314 316 317 318 318 318 320 322 325 326 325 325
304 307 306 306 305 306 306 307 306 305 304 305 303 302 304 303 303 302 302 301 300 300 300 299 298 297 298 300 302 302 302 303 305 312 317 317 317 317 318 319 321 323 323 323
305 304 305 305 306 305 308 306 306 306 305 307 303 304 302 303 302 302 302 302 301 300 299 298 298 296 297 299 301 302 302 302 302 304 308 317 318 318 318 318 320 322 323 322
305 305 303 305 306 305 305 304 305 306 305 305 306 300 302 303 303 301 302 302 301 300 299 298 297 296 296 299 301 302 302 302 302 302 303 308 316 318 317 317 317 319 322 322
303 305 304 304 304 305 304 306 301 302 303 299 306 302 302 304 304 302 302 302 301 300 299 298 297 296 295 298 301 302 302 302 302 303 303 303 304 313 318 318 318 319 320 321
298 303 301 304 304 303 302 299 294 295 295 300 302 302 302 302 303 302 302 303 301 300 299 298 296 296 295 296 300 301 302 302 302 302 302 303 302 303 311 316 318 319 320 319
294 296 301 302 304 304 305 301 296 294 299 299 302 306 306 304 304 304 303 303 302 300 299 297 296 295 295 295 297 300 302 302 303 302 301 302 302 302 302 308 315 317 318 319
292 297 301 301 302 301 302 299 302 296 292 300 301 302 303 303 302 303 303 303 303 301 300 297 295 295 294 294 297 299 302 302 303 303 302 302 301 302 302 302 305 313 316 319
295 294 296 301 303 302 303 303 297 294 293 294 298 299 304 305 304 301 302 303 303 301 301 299 295 295 294 295 296 298 301 302 303 303 303 302 302 301 302 303 302 305 312 316
292 293 295 299 297 301 302 299 303 301 299 294 294 297 297 303 302 301 301 303 302 301 301 300 296 295 295 295 297 298 298 302 302 303 303 303 303 303 302 301 302 303 305 312
299 295 295 294 297 299 300 303 303 294 292 295 297 297 299 301 301 302 303 303 302 302 301 301 298 295 295 295 295 295 298 300 301 303 303 303 304 303 302 301 302 303 303 306
300 295 293 296 295 297 300 301 302 298 296 295 293 296 297 299 301 303 302 303 302 302 302 301 299 295 294 294 295 295 297 297 301 302 303 303 304 304 304 302 302 303 304 306
299 289 295 301 299 297 297 297 302 297 289 293 295 293 297 291 292 298 299 301 302 302 301 302 298 295 294 294 294 295 295 296 300 301 302 303 304 305 304 304 303 303 305 307
298 294 289 291 295 298 298 295 297 294 296 292 291 292 296 295 292 299 301 301 300 301 301 299 296 295 294 294 294 294 295 295 299 301 302 303 304 304 305 305 305 306 307 309
298 297 290 289 289 292 295 295 294 295 291 294 296 298 299 300 300 302 303 302 300 299 298 297 296 295 295 294 294 294 294 295 295 299 301 302 304 305 305 305 306 308 308 309
298 294 289 296 287 288 298 293 295 294 294 298 296 298 298 299 302 303 304 303 302 300 298 298 296 295 295 294 294 294 294 294 294 296 302 303 303 304 305 306 307 307 308 308
297 294 289 291 290 302 303 293 295 295 293 296 297 296 298 300 301 301 302 303 303 303 301 299 297 295 295 294 294 294 294 294 294 297 301 303 303 304 304 304 304 305 306 307
296 295 288 295 287 299 300 296 295 296 298 296 296 297 297 299 299 303 304 304 303 303 303 300 298 296 295 294 294 295 294 294 295 299 300 298 299 300 300 303 304 303 303 303
295 293 294 284 294 300 306 298 298 298 299 298 296 297 297 299 301 298 304 303 301 301 303 301 299 297 295 295 294 295 295 294 295 298 300 299 296 295 295 295 300 302 301 300
293 290 293 285 290 296 296 299 299 300 304 300 300 300 299 299 303 304 304 304 302 300 300 301 300 298 296 295 295 294 295 294 294 294 295 296 295 294 294 294 294 297 299 298
296 294 292 286 290 302 298 298 300 301 303 304 303 303 303 304 305 305 305 305 304 302 300 300 299 299 297 296 295 295 294 294 293 293 293 293 293 293 293 293 293 293 293 294
300 298 297 297 299 299 299 302 303 303 304 304 304 304 304 304 304 304 304 304 305 304 304 301 300 299 298 296 295 295 294 294 294 293 293 293 293 292 292 292 292 292 292 292
292 295 295 296 301 297 300 302 303 304 304 303 303 303 303 303 303 303 303 303 302 303 303 304 303 301 299 298 297 296 295 295 294 294 293 293 293 293 292 292 292 292 292 293
296 295 295 295 298 299 301 303 305 304 303 303 302 303 303 303 304 303 302 302 302 302 302 302 302 303 303 300 298 297 296 295 295 294 294 293 293 293 293 292 292 292 292 292
294 296 301 303 304 306 308 310 308 306 306 306 305 304 305 305 306 307 305 303 301 301 301 301 302 301 301 302 301 298 296 296 296 295 294 294 294 293 293 293 293 293 292 292
Wind_Speed
9 8 3 3 3 1 1 1 3 4 2 6 2 4 5 3 2 2 4 6 8 9 11 13 15 15 14 11 10 9 9 6 4 8 7 9 8 9 18 21 36 32 25 23
6 4 5 4 7 5 3 2 4 6 4 3 3 6 5 4 3 2 2 3 5 8 10 13 15 16 17 17 14 12 9 9 7 4 6 5 5 8 10 10 18 31 28 26
6 1 3 4 7 5 2 2 4 4 6 0 6 5 4 4 4 3 3 4 5 8 11 13 15 17 17 18 16 14 11 8 9 10 7 9 7 6 12 3 5 25 26 27
4 5 3 5 5 3 3 2 4 4 4 1 4 4 4 4 6 6 7 6 5 7 9 12 15 17 19 18 16 15 13 11 7 11 8 12 13 12 9 10 6 17 14 34
1 2 4 5 2 2 6 4 3 2 1 2 2 3 6 2 6 8 10 8 7 6 9 11 13 15 17 18 16 15 15 14 10 7 10 13 15 17 14 13 15 15 14 15
1 1 3 0 2 3 6 1 3 3 1 3 2 4 5 3 4 3 5 8 7 6 7 11 12 13 16 16 15 16 17 14 11 9 9 13 15 17 20 25 22 21 19 16
6 3 2 3 4 3 8 4 3 5 4 4 1 2 8 3 4 3 6 7 7 7 8 10 13 15 17 16 14 14 14 14 11 9 9 10 13 16 19 21 22 25 18 21
3 6 4 5 4 1 3 2 4 4 2 5 2 4 3 2 3 6 8 9 10 9 10 11 11 13 15 16 15 13 13 12 11 9 9 9 11 14 17 20 22 20 22 22
4 4 4 3 2 4 5 4 1 5 1 2 4 6 5 2 5 9 12 12 13 12 11 13 13 14 15 16 14 14 14 11 10 8 8 8 8 11 14 18 20 22 22 19
2 3 3 2 3 4 3 2 3 3 3 4 5 5 4 4 6 5 8 12 14 13 13 13 14 14 15 15 13 11 11 11 10 10 9 7 8 9 11 15 18 21 21 22
3 3 5 1 1 4 3 2 1 1 2 4 1 6 6 6 5 7 11 11 11 12 13 13 13 14 16 15 13 12 12 11 9 9 9 8 7 7 7 10 13 18 18 19
4 3 2 6 2 3 3 2 3 4 6 0 2 6 4 6 8 8 12 11 12 13 14 13 13 12 12 13 12 12 11 10 10 10 9 7 7 6 5 6 8 11 13 15
4 1 3 7 4 4 3 3 2 4 2 5 5 6 2 6 8 12 14 17 17 15 16 14 13 11 10 11 10 10 9 11 10 10 10 8 6 5 3 2 3 4 7 9
4 2 5 5 5 4 3 5 5 4 3 2 6 8 10 6 7 17 17 13 13 15 15 14 12 10 9 9 8 8 9 10 12 6 9 8 6 6 5 3 2 4 7 10
3 3 2 4 2 3 4 5 9 9 5 6 4 6 11 10 8 18 12 10 8 7 9 8 8 8 8 8 7 6 6 7 8 9 7 7 6 7 5 5 5 6 8 10
2 1 2 4 3 1 6 10 11 8 5 11 11 21 16 16 9 8 8 10 10 6 7 7 7 7 6 6 6 6 5 5 5 6 4 6 7 7 7 5 6 7 7 6
5 5 3 5 2 5 7 8 13 5 5 10 6 12 4 3 8 10 7 9 10 8 7 7 6 6 4 4 4 4 5 5 5 4 1 4 5 7 7 7 7 4 6 7
5 4 2 3 5 3 5 4 6 8 5 16 11 9 10 9 10 16 17 16 17 14 10 7 6 5 4 2 2 3 4 5 6 4 3 4 4 4 4 5 5 5 6 7
2 4 2 2 3 7 1 5 8 8 8 20 22 20 16 18 15 20 8 9 8 13 10 8 5 5 4 2 1 2 4 5 5 4 4 3 3 3 2 4 2 1 3 5
4 5 3 3 3 6 4 3 9 6 5 10 25 16 11 6 1 4 3 1 2 4 10 8 6 5 4 4 2 1 2 3 4 1 2 2 3 3 4 6 6 5 6 4
3 2 5 2 3 9 7 11 12 5 6 8 18 15 14 7 12 1 3 3 3 2 4 8 9 5 5 4 4 3 2 1 2 0 1 0 1 2 4 5 6 6 6 5
9 8 4 3 1 9 17 9 9 4 4 8 11 14 16 15 12 10 8 7 7 6 5 4 7 9 8 7 5 5 4 4 3 2 2 3 2 2 3 4 5 5 7 7
5 8 7 11 8 2 36 6 21 7 8 9 10 8 9 10 12 14 14 12 11 11 10 9 8 7 11 11 9 7 7 7 7 5 3 4 4 3 2 3 5 5 5 6
5 8 3 2 8 21 19 32 14 19 13 9 9 7 10 12 13 18 17 14 15 14 14 13 13 14 13 11 13 10 13 11 10 9 8 6 6 6 5 4 5 6 6 7
6 17 6 6 11 10 20 29 29 30 27 20 18 17 18 20 20 24 25 23 19 17 17 17 18 18 17 17 16 14 16 15 14 13 13 12 10 8 8 8 8 8 9 9
13 8 8 8 14 13 9 13 17 26 25 22 25 25 18 20 21 23 26 21 20 21 21 22 24 24 21 20 21 19 20 19 18 19 18 16 15 14 12 12 12 12 13 12
Wind_Direction
39 64 31 52 8 280 222 252 297 278 283 355 270 280 260 288 330 356 16 8 357 0 6 2 6 4 358 345 332 313 313 305 309 170 195 204 205 263 222 215 209 203 211 215
36 61 292 130 49 64 44 343 310 274 269 352 328 287 245 245 255 270 317 349 349 344 353 358 3 7 4 358 347 332 306 284 273 264 165 187 195 201 244 201 220 196 202 211
115 253 332 91 57 25 24 38 318 268 323 86 342 307 268 259 242 225 268 310 323 333 340 347 354 360 0 0 355 341 328 299 265 260 222 211 193 176 198 235 152 200 209 216
84 341 51 82 82 47 312 189 296 298 9 324 45 287 286 258 258 248 253 277 305 318 334 339 347 355 357 356 353 347 338 325 293 261 238 240 225 223 192 204 214 186 219 228
228 25 23 71 90 95 238 347 278 289 343 28 5 69 269 22 281 262 257 266 289 301 325 334 340 348 353 352 349 351 344 336 323 283 262 233 236 226 219 205 199 222 224 228
74 132 72 154 277 169 302 52 34 29 45 32 289 108 286 241 235 305 258 264 280 281 313 325 331 340 349 351 348 354 350 341 337 320 277 256 240 233 233 237 238 235 238 223
344 347 353 34 41 50 35 45 348 347 14 214 35 93 246 277 255 242 265 276 280 274 305 323 327 334 343 348 349 355 352 351 347 332 303 270 255 242 236 237 238 242 244 238
132 331 354 342 90 166 358 79 135 253 322 280 287 240 261 218 269 276 277 282 283 282 306 321 326 333 343 344 344 349 352 350 347 345 330 296 265 255 240 236 236 236 233 238
113 311 316 67 114 104 316 33 139 111 8 344 275 293 300 277 289 279 274 274 274 283 306 321 324 332 341 346 346 351 352 348 351 349 343 331 307 266 250 240 238 233 230 228
178 41 289 281 145 83 105 170 17 2 22 317 299 287 246 256 260 263 275 265 272 280 298 314 319 330 341 349 350 349 352 355 357 347 344 335 326 304 273 250 241 238 232 229
133 117 286 330 345 143 40 355 56 101 126 171 292 274 215 217 219 229 263 276 280 282 291 309 317 327 338 346 346 343 348 352 356 353 352 346 329 311 295 274 249 235 229 228
202 146 139 238 211 110 135 230 164 125 279 189 157 275 241 233 253 240 266 288 285 283 285 300 307 315 329 336 341 347 356 353 349 355 358 360 351 329 308 270 249 230 218 215
190 325 27 339 7 7 169 187 148 93 57 209 140 264 281 273 268 264 268 278 288 277 276 286 294 303 317 329 339 350 357 3 358 0 2 4 2 4 355 304 248 199 195 193
131 90 166 197 199 128 187 174 173 137 121 197 230 292 294 280 270 291 302 304 278 269 261 268 275 290 306 320 332 344 354 1 5 354 6 7 15 30 37 56 101 159 160 169
133 211 159 263 281 287 240 188 171 186 208 182 265 229 273 278 268 299 308 302 291 266 255 247 260 274 300 317 326 341 357 9 13 13 15 17 32 45 65 82 106 130 150 159
152 202 102 293 353 264 261 225 197 194 222 273 275 283 262 278 269 262 284 283 279 268 269 254 255 262 283 307 329 343 341 4 10 14 16 32 51 59 59 91 102 127 141 145
157 136 87 272 326 307 298 220 191 167 191 201 193 226 247 266 251 268 268 274 277 265 248 258 259 258 272 304 334 351 358 24 34 29 41 52 82 67 63 75 90 128 138 145
140 104 82 258 351 344 235 149 198 186 220 216 265 248 230 246 278 282 273 268 274 270 252 240 251 249 256 288 339 2 19 35 40 54 113 117 96 82 58 73 92 113 132 149
105 128 80 151 213 294 195 188 160 163 272 207 223 249 256 272 293 297 264 248 270 255 244 229 229 240 250 261 298 12 38 48 52 85 97 85 81 82 113 162 174 126 142 136
80 74 118 88 167 220 243 168 179 152 297 188 192 230 230 222 244 257 177 224 224 218 230 226 226 227 231 263 270 297 37 69 78 65 89 64 62 91 121 128 139 127 133 133
116 51 180 165 245 285 236 155 155 91 238 178 190 200 183 193 231 193 205 235 244 200 207 230 235 228 224 236 263 261 259 57 96 44 298 308 101 122 121 119 121 138 128 115
163 152 190 95 115 274 158 126 175 207 156 172 187 198 203 226 255 252 252 245 253 248 226 233 244 242 238 236 234 246 245 237 229 238 285 293 267 165 139 132 136 141 141 154
209 186 177 192 209 232 180 196 202 191 178 179 196 208 227 242 259 267 262 253 252 253 250 243 244 242 250 249 241 239 232 245 242 237 251 276 273 263 214 173 160 157 169 180
233 180 188 98 234 232 216 220 211 215 192 188 199 224 244 260 273 276 272 264 256 256 258 256 249 250 245 250 251 234 235 237 241 242 240 242 258 260 254 240 211 190 187 198
175 147 172 261 272 263 251 232 232 232 234 238 242 250 266 272 276 277 274 265 265 265 261 258 258 254 254 250 245 243 246 245 241 239 240 240 236 242 250 247 242 231 217 212
186 168 179 219 212 207 232 225 234 234 246 255 253 254 265 270 277 281 276 275 267 263 265 263 260 259 255 250 253 247 247 252 254 248 244 244 242 239 238 239 240 241 240 234